JCSAT-5A

Last updated on Wed May 14 2025 00:02:41 GMT+0000 (Coordinated Universal Time)

1 29045U 06010A 25133.47745858 -.00000311 00000+0 00000+0 0 9993 2 29045 0.0938 90.0821 0002097 346.5279 98.8081 1.00272922 69763
UTC large
Height (km)
Speed (km/s)
/
Latitude / Longitude
Inclination (degrees)
Orbital Period (minutes)
Azimuth
Elevation
Range (km)
Doppler Factor

Next 0 passes for location: London (51.5072 / 0.1276)

Sorry there are no passes over London.